Air Resources Laboratory banner image
Air Resources Laboratory web site National Oceanic and Atmospheric Administration (NOAA)

dc zone


SCZ050-WAZ558-NCZ071-TXZ119-213-PAZ071-DCZ001-FLZ074-172-MI076-
NYZ176-178-MAZ016-IL014-TNZ027-NJZ106-GAZ044-MD014-111800-

...Gateway Observations for Charleston International...

CITY           SKY/WX    TMP DP  RH WIND       PRES   REMARKS
Chas Airport   PTSUNNY   86  69  56 SW8       30.11S HX  90
Seattle        MOSUNNY   69  55  60 VRB5      30.12F
Charlotte      LGT RAIN  80  73  79 VRB5      30.09F
Dallas DFW     MOSUNNY   91  68  46 N3        30.05S HX  95
Dallas Love    MOSUNNY   91  71  51 N6        30.05F HX  97
Philladelphia  MOSUNNY   86  64  47 VRB5      29.91F
Wash National  PTSUNNY   83  63  50 NW15G21   29.97F
Baltimore      PTSUNNY   84  63  49 NW8G20    29.95S
Miami          PTSUNNY   90  72  55 E15       30.10F HX  97
Detroit        MOSUNNY   78  50  37 N12G18    30.13S
Newark         PTSUNNY   86  58  38 CALM      29.88F
Laguardia      PTSUNNY   82  59  45 N5        29.88F
J F K          PTSUNNY   83  62  49 N8        29.89F
Boston Logan   CLOUDY    69  66  90 SE10      29.90F
Ft. Lauderdale MOSUNNY   89  74  60 SE9       30.10F HX  98
Chicago O'Hare PTSUNNY   75  51  43 NE15      30.20R
Chicago Midway PTSUNNY   79  52  38 NE15G24   30.19S
Houston Bush   PTSUNNY   88  74  63 VRB3      30.03F HX  96
Houston Hobby  PTSUNNY   89  70  53 NW9       30.03S HX  94
Nashville      PTSUNNY   84  68  58 VRB5      30.10F
Atlanta        PTSUNNY   80  70  71 CALM      30.13F
London Heathrw   N/A     88  50  27 E13       30.09S


GAZ044-118-TXZ119-213-NCZ071-DCZ001-MDZ014-506-PAZ021-071-NJZ106-
NYZ176-178-MAZ106-OHZ011-021-055-MIZ076-KYZ091-ILZ014-INZ047-
MNZ060-ONZ431-111800-

...Gateway Observations for Savannah International...

CITY           SKY/WX    TMP DP  RH WIND       PRES   REMARKS
Savannah Arpt  CLOUDY    84  69  60 VRB3      30.12F
Atlanta        PTSUNNY   80  70  71 CALM      30.13F
Charlotte      LGT RAIN  80  73  79 VRB5      30.09F
Dallas DFW     MOSUNNY   91  68  46 N3        30.05S HX  95
Houston Bush   PTSUNNY   88  74  63 VRB3      30.03F HX  96
Wash National  PTSUNNY   83  63  50 NW15G21   29.97F
Wash Dulles    MOSUNNY   81  60  48 NW13      29.99S
Baltimore      PTSUNNY   84  63  49 NW8G20    29.95S
Philadelphia   MOSUNNY   86  64  47 VRB5      29.91F
Newark         PTSUNNY   86  58  38 CALM      29.88F
Laguardia      PTSUNNY   82  59  45 N5        29.88F
J F K          PTSUNNY   83  62  49 N8        29.89F
Boston         CLOUDY    69  66  90 SE10      29.90F
Pittsburg      CLOUDY    77  64  64 W9        30.05F
Akron          PTSUNNY   78  59  51 N9        30.10F
Cleveland      PTSUNNY   73  56  54 N9        30.10S
Cincinnati     MOSUNNY   80  63  55 N8        30.11F
Columbus       PTSUNNY   80  63  55 NW7       30.09F
Detroit        MOSUNNY   78  50  37 N12G18    30.13S
Chicago O'Hare PTSUNNY   75  51  43 NE15      30.20R
Minneapolis    MOSUNNY   79  53  40 VRB5      30.24R
Indianapolis   PTSUNNY   82  64  54 W6        30.12F
Toronto Canada PTSUNNY   77  48  36 NW20G29   30.03S


SCZ050-WAZ558-NCZ071-TXZ119-213-PAZ071-DCZ001-FLZ074-172-MI076-
NYZ176-178-MAZ016-IL014-TNZ027-NJZ106-GAZ044-MD014-111800-

...Gateway Observations for Charleston International...

CITY           SKY/WX    TMP DP  RH WIND       PRES   REMARKS
Chas Airport   PTSUNNY   86  69  56 SW8       30.11S HX  90
Seattle        MOSUNNY   69  55  60 VRB5      30.12F
Charlotte      LGT RAIN  80  73  79 VRB5      30.09F
Dallas DFW     MOSUNNY   91  68  46 N3        30.05S HX  95
Dallas Love    MOSUNNY   91  71  51 N6        30.05F HX  97
Philladelphia  MOSUNNY   86  64  47 VRB5      29.91F
Wash National  PTSUNNY   83  63  50 NW15G21   29.97F
Baltimore      PTSUNNY   84  63  49 NW8G20    29.95S
Miami          PTSUNNY   90  72  55 E15       30.10F HX  97
Detroit        MOSUNNY   78  50  37 N12G18    30.13S
Newark         PTSUNNY   86  58  38 CALM      29.88F
Laguardia      PTSUNNY   82  59  45 N5        29.88F
J F K          PTSUNNY   83  62  49 N8        29.89F
Boston Logan   CLOUDY    69  66  90 SE10      29.90F
Ft. Lauderdale MOSUNNY   89  74  60 SE9       30.10F HX  98
Chicago O'Hare PTSUNNY   75  51  43 NE15      30.20R
Chicago Midway PTSUNNY   79  52  38 NE15G24   30.19S
Houston Bush   PTSUNNY   88  74  63 VRB3      30.03F HX  96
Houston Hobby  PTSUNNY   89  70  53 NW9       30.03S HX  94
Nashville      PTSUNNY   84  68  58 VRB5      30.10F
Atlanta        PTSUNNY   80  70  71 CALM      30.13F
London Heathrw   N/A     88  50  27 E13       30.09S


GAZ044-118-TXZ119-213-NCZ071-DCZ001-MDZ014-506-PAZ021-071-NJZ106-
NYZ176-178-MAZ106-OHZ011-021-055-MIZ076-KYZ091-ILZ014-INZ047-
MNZ060-ONZ431-111800-

...Gateway Observations for Savannah International...

CITY           SKY/WX    TMP DP  RH WIND       PRES   REMARKS
Savannah Arpt  CLOUDY    84  69  60 VRB3      30.12F
Atlanta        PTSUNNY   80  70  71 CALM      30.13F
Charlotte      LGT RAIN  80  73  79 VRB5      30.09F
Dallas DFW     MOSUNNY   91  68  46 N3        30.05S HX  95
Houston Bush   PTSUNNY   88  74  63 VRB3      30.03F HX  96
Wash National  PTSUNNY   83  63  50 NW15G21   29.97F
Wash Dulles    MOSUNNY   81  60  48 NW13      29.99S
Baltimore      PTSUNNY   84  63  49 NW8G20    29.95S
Philadelphia   MOSUNNY   86  64  47 VRB5      29.91F
Newark         PTSUNNY   86  58  38 CALM      29.88F
Laguardia      PTSUNNY   82  59  45 N5        29.88F
J F K          PTSUNNY   83  62  49 N8        29.89F
Boston         CLOUDY    69  66  90 SE10      29.90F
Pittsburg      CLOUDY    77  64  64 W9        30.05F
Akron          PTSUNNY   78  59  51 N9        30.10F
Cleveland      PTSUNNY   73  56  54 N9        30.10S
Cincinnati     MOSUNNY   80  63  55 N8        30.11F
Columbus       PTSUNNY   80  63  55 NW7       30.09F
Detroit        MOSUNNY   78  50  37 N12G18    30.13S
Chicago O'Hare PTSUNNY   75  51  43 NE15      30.20R
Minneapolis    MOSUNNY   79  53  40 VRB5      30.24R
Indianapolis   PTSUNNY   82  64  54 W6        30.12F
Toronto Canada PTSUNNY   77  48  36 NW20G29   30.03S


SCZ050-WAZ558-NCZ071-TXZ119-213-PAZ071-DCZ001-FLZ074-172-MI076-
NYZ176-178-MAZ016-IL014-TNZ027-NJZ106-GAZ044-MD014-111800-

...Gateway Observations for Charleston International...

CITY           SKY/WX    TMP DP  RH WIND       PRES   REMARKS
Chas Airport   PTSUNNY   86  69  56 SW6       30.11S THUNDER HX  90
Seattle        MOSUNNY   69  55  60 VRB5      30.12F
Charlotte      LGT RAIN  80  73  79 VRB5      30.09F
Dallas DFW     MOSUNNY   91  68  46 N3        30.05S HX  95
Dallas Love    MOSUNNY   91  71  51 N6        30.05F HX  97
Philladelphia  MOSUNNY   86  64  47 VRB5      29.91F
Wash National  PTSUNNY   83  63  50 NW15G21   29.97F
Baltimore      PTSUNNY   84  63  49 NW8G20    29.95S
Miami          PTSUNNY   90  72  55 E15       30.10F HX  97
Detroit        MOSUNNY   78  50  37 N12G18    30.13S
Newark         PTSUNNY   86  58  38 CALM      29.88F
Laguardia      PTSUNNY   82  59  45 N5        29.88F
J F K          PTSUNNY   83  62  49 N8        29.89F
Boston Logan   CLOUDY    69  66  90 SE10      29.90F
Ft. Lauderdale MOSUNNY   89  74  60 SE9       30.10F HX  98
Chicago O'Hare PTSUNNY   75  51  43 NE15      30.20R
Chicago Midway PTSUNNY   79  52  38 NE15G24   30.19S
Houston Bush   PTSUNNY   88  74  63 VRB3      30.03F HX  96
Houston Hobby  PTSUNNY   89  70  53 NW9       30.03S HX  94
Nashville      PTSUNNY   84  68  58 VRB5      30.10F
Atlanta        PTSUNNY   80  70  71 CALM      30.13F
London Heathrw   N/A     86  50  28 E13       30.09S


GAZ044-118-TXZ119-213-NCZ071-DCZ001-MDZ014-506-PAZ021-071-NJZ106-
NYZ176-178-MAZ106-OHZ011-021-055-MIZ076-KYZ091-ILZ014-INZ047-
MNZ060-ONZ431-111800-

...Gateway Observations for Savannah International...

CITY           SKY/WX    TMP DP  RH WIND       PRES   REMARKS
Savannah Arpt  CLOUDY    84  69  60 VRB3      30.12F
Atlanta        PTSUNNY   80  70  71 CALM      30.13F
Charlotte      LGT RAIN  80  73  79 VRB5      30.09F
Dallas DFW     MOSUNNY   91  68  46 N3        30.05S HX  95
Houston Bush   PTSUNNY   88  74  63 VRB3      30.03F HX  96
Wash National  PTSUNNY   83  63  50 NW15G21   29.97F
Wash Dulles    MOSUNNY   81  60  48 NW13      29.99S
Baltimore      PTSUNNY   84  63  49 NW8G20    29.95S
Philadelphia   MOSUNNY   86  64  47 VRB5      29.91F
Newark         PTSUNNY   86  58  38 CALM      29.88F
Laguardia      PTSUNNY   82  59  45 N5        29.88F
J F K          PTSUNNY   83  62  49 N8        29.89F
Boston         CLOUDY    69  66  90 SE10      29.90F
Pittsburg      CLOUDY    77  64  64 W9        30.05F
Akron          PTSUNNY   78  59  51 N9        30.10F
Cleveland      PTSUNNY   73  56  54 N9        30.10S
Cincinnati     MOSUNNY   80  63  55 N8        30.11F
Columbus       PTSUNNY   80  63  55 NW7       30.09F
Detroit        MOSUNNY   78  50  37 N12G18    30.13S
Chicago O'Hare PTSUNNY   75  51  43 NE15      30.20R
Minneapolis    MOSUNNY   79  53  40 VRB5      30.24R
Indianapolis   PTSUNNY   82  64  54 W6        30.12F
Toronto Canada PTSUNNY   77  48  36 NW20G29   30.03S




FEUS71 KLWX 111402 EOLLWX Baltimore and Washington DC Enhanced Metro Forecast/Outlook National Weather Service Baltimore MD/Washington DC 1002 AM EDT Thu Aug 11 2022 DCZ001-MDZ004-013-016-503-504-VAZ052>054-506-111800- Washington DC Greater Metropolitan Area Forecast .REST OF TODAY...Partly sunny. A slight chance of showers late this morning. Highs in the mid 80s. Northwest winds 5 to 10 mph. Chance of rain 20 percent. .TONIGHT...Partly cloudy in the evening, then becoming mostly cloudy. A 20 percent chance of showers. Lows in the mid 60s. Northwest winds 5 to 10 mph. .FRIDAY...Sunny. Highs in the lower 80s. North winds 5 to 10 mph with gusts up to 20 mph. .FRIDAY NIGHT...Clear. Lows in the upper 50s. North winds 5 to 10 mph. .SATURDAY...Sunny. Highs around 80. North winds around 5 mph. .SATURDAY NIGHT...Partly cloudy. Lows around 60. .SUNDAY...Mostly sunny. Highs around 80. .SUNDAY NIGHT...Mostly cloudy with a 40 percent chance of showers. Lows in the lower 60s. .MONDAY...Mostly cloudy with a chance of showers. Highs in the mid 70s. Chance of rain 50 percent. .MONDAY NIGHT...Mostly cloudy with a chance of showers. Lows in the lower 60s. Chance of rain 50 percent. .TUESDAY...Partly sunny with a chance of showers. Highs in the upper 70s. Chance of rain 50 percent. .TUESDAY NIGHT...Partly cloudy. Lows in the lower 60s. .WEDNESDAY...Mostly sunny with a chance of showers. Highs in the upper 70s. Chance of rain 40 percent. $$ MDZ005-011-014-505>508-111800- Baltimore Greater Metropolitan Area Forecast .REST OF TODAY...Mostly sunny. Highs in the mid 80s. Northwest winds 5 to 10 mph. .TONIGHT...Partly cloudy in the evening, then mostly cloudy with a slight chance of showers after midnight. Lows in the mid 60s. Northwest winds 5 to 10 mph. Chance of rain 20 percent. .FRIDAY...Sunny. Highs in the lower 80s. North winds 10 to 15 mph. .FRIDAY NIGHT...Clear. Lows in the upper 50s. North winds 5 to 10 mph. .SATURDAY...Sunny. Highs around 80. North winds 5 to 10 mph. .SATURDAY NIGHT...Mostly clear. Lows around 60. .SUNDAY...Mostly sunny. Highs around 80. .SUNDAY NIGHT...Mostly cloudy with a 40 percent chance of showers. Lows in the mid 60s. .MONDAY...Mostly cloudy with a chance of showers. Highs in the mid 70s. Chance of rain 40 percent. .MONDAY NIGHT...Mostly cloudy with a chance of showers. Lows in the lower 60s. Chance of rain 40 percent. .TUESDAY...Partly sunny with a chance of showers. Highs in the mid 70s. Chance of rain 50 percent. .TUESDAY NIGHT...Mostly cloudy. Lows in the lower 60s. .WEDNESDAY...Mostly sunny with a chance of showers. Highs in the upper 70s. Chance of rain 40 percent. $$ FEUS71 KLWX 111402 EOLLWX Baltimore and Washington DC Enhanced Metro Forecast/Outlook National Weather Service Baltimore MD/Washington DC 1002 AM EDT Thu Aug 11 2022 DCZ001-MDZ004-013-016-503-504-VAZ052>054-506-111800- Washington DC Greater Metropolitan Area Forecast .REST OF TODAY...Partly sunny. A slight chance of showers late this morning. Highs in the mid 80s. Northwest winds 5 to 10 mph. Chance of rain 20 percent. .TONIGHT...Partly cloudy in the evening, then becoming mostly cloudy. A 20 percent chance of showers. Lows in the mid 60s. Northwest winds 5 to 10 mph. .FRIDAY...Sunny. Highs in the lower 80s. North winds 5 to 10 mph with gusts up to 20 mph. .FRIDAY NIGHT...Clear. Lows in the upper 50s. North winds 5 to 10 mph. .SATURDAY...Sunny. Highs around 80. North winds around 5 mph. .SATURDAY NIGHT...Partly cloudy. Lows around 60. .SUNDAY...Mostly sunny. Highs around 80. .SUNDAY NIGHT...Mostly cloudy with a 40 percent chance of showers. Lows in the lower 60s. .MONDAY...Mostly cloudy with a chance of showers. Highs in the mid 70s. Chance of rain 50 percent. .MONDAY NIGHT...Mostly cloudy with a chance of showers. Lows in the lower 60s. Chance of rain 50 percent. .TUESDAY...Partly sunny with a chance of showers. Highs in the upper 70s. Chance of rain 50 percent. .TUESDAY NIGHT...Partly cloudy. Lows in the lower 60s. .WEDNESDAY...Mostly sunny with a chance of showers. Highs in the upper 70s. Chance of rain 40 percent. $$ MDZ005-011-014-505>508-111800- Baltimore Greater Metropolitan Area Forecast .REST OF TODAY...Mostly sunny. Highs in the mid 80s. Northwest winds 5 to 10 mph. .TONIGHT...Partly cloudy in the evening, then mostly cloudy with a slight chance of showers after midnight. Lows in the mid 60s. Northwest winds 5 to 10 mph. Chance of rain 20 percent. .FRIDAY...Sunny. Highs in the lower 80s. North winds 10 to 15 mph. .FRIDAY NIGHT...Clear. Lows in the upper 50s. North winds 5 to 10 mph. .SATURDAY...Sunny. Highs around 80. North winds 5 to 10 mph. .SATURDAY NIGHT...Mostly clear. Lows around 60. .SUNDAY...Mostly sunny. Highs around 80. .SUNDAY NIGHT...Mostly cloudy with a 40 percent chance of showers. Lows in the mid 60s. .MONDAY...Mostly cloudy with a chance of showers. Highs in the mid 70s. Chance of rain 40 percent. .MONDAY NIGHT...Mostly cloudy with a chance of showers. Lows in the lower 60s. Chance of rain 40 percent. .TUESDAY...Partly sunny with a chance of showers. Highs in the mid 70s. Chance of rain 50 percent. .TUESDAY NIGHT...Mostly cloudy. Lows in the lower 60s. .WEDNESDAY...Mostly sunny with a chance of showers. Highs in the upper 70s. Chance of rain 40 percent. $$ FEUS71 KLWX 111433 EOLLWX Baltimore and Washington DC Enhanced Metro Forecast/Outlook National Weather Service Baltimore MD/Washington DC 1033 AM EDT Thu Aug 11 2022 DCZ001-MDZ004-013-016-503-504-VAZ052>054-506-111800- Washington DC Greater Metropolitan Area Forecast .REST OF TODAY...Partly sunny. A slight chance of showers late this morning. Highs in the mid 80s. Northwest winds 5 to 10 mph. Chance of rain 20 percent. .TONIGHT...Partly cloudy in the evening, then becoming mostly cloudy. A 20 percent chance of showers. Lows in the mid 60s. Northwest winds 5 to 10 mph. .FRIDAY...Sunny. Highs in the lower 80s. North winds 5 to 10 mph with gusts up to 20 mph. .FRIDAY NIGHT...Clear. Lows in the upper 50s. North winds 5 to 10 mph. .SATURDAY...Sunny. Highs around 80. North winds around 5 mph. .SATURDAY NIGHT...Partly cloudy. Lows around 60. .SUNDAY...Mostly sunny. Highs around 80. .SUNDAY NIGHT...Mostly cloudy with a 40 percent chance of showers. Lows in the lower 60s. .MONDAY...Mostly cloudy with a chance of showers. Highs in the mid 70s. Chance of rain 50 percent. .MONDAY NIGHT...Mostly cloudy with a chance of showers. Lows in the lower 60s. Chance of rain 50 percent. .TUESDAY...Partly sunny with a chance of showers. Highs in the upper 70s. Chance of rain 50 percent. .TUESDAY NIGHT...Partly cloudy. Lows in the lower 60s. .WEDNESDAY...Mostly sunny with a chance of showers. Highs in the upper 70s. Chance of rain 40 percent. $$ MDZ005-011-014-505>508-111800- Baltimore Greater Metropolitan Area Forecast .REST OF TODAY...Mostly sunny. Highs in the mid 80s. Northwest winds 5 to 10 mph. .TONIGHT...Partly cloudy in the evening, then mostly cloudy with a slight chance of showers after midnight. Lows in the mid 60s. Northwest winds 5 to 10 mph. Chance of rain 20 percent. .FRIDAY...Sunny. Highs in the lower 80s. North winds 10 to 15 mph. .FRIDAY NIGHT...Clear. Lows in the upper 50s. North winds 5 to 10 mph. .SATURDAY...Sunny. Highs around 80. North winds 5 to 10 mph. .SATURDAY NIGHT...Mostly clear. Lows around 60. .SUNDAY...Mostly sunny. Highs around 80. .SUNDAY NIGHT...Mostly cloudy with a 40 percent chance of showers. Lows in the mid 60s. .MONDAY...Mostly cloudy with a chance of showers. Highs in the mid 70s. Chance of rain 40 percent. .MONDAY NIGHT...Mostly cloudy with a chance of showers. Lows in the lower 60s. Chance of rain 40 percent. .TUESDAY...Partly sunny with a chance of showers. Highs in the mid 70s. Chance of rain 50 percent. .TUESDAY NIGHT...Mostly cloudy. Lows in the lower 60s. .WEDNESDAY...Mostly sunny with a chance of showers. Highs in the upper 70s. Chance of rain 40 percent. $$